Time,TemperatureF,DewpointF,PressureIn,WindDirection,WindDirectionDegrees,WindSpeedMPH,WindSpeedGustMPH,Humidity,HourlyPrecipIn,Conditions,Clouds,dailyrainin,SoftwareType,DateUTC
2013-03-20 00:14:00,64.1,63.0,29.95,SSW,210,0.0,0.0,95,0.00,,,0.00,weatherlink.com 1.10,2013-03-20 04:14:00,
2013-03-20 00:29:00,64.5,63.0,29.95,SSW,210,0.0,0.0,95,0.00,,,0.00,weatherlink.com 1.10,2013-03-20 04:29:00,
2013-03-20 00:45:00,64.6,63.0,29.95,SSW,210,0.0,0.0,95,0.00,,,0.00,weatherlink.com 1.10,2013-03-20 04:45:00,
2013-03-20 01:00:00,64.4,63.0,29.95,SSW,210,0.0,0.0,94,0.00,,,0.00,weatherlink.com 1.10,2013-03-20 05:00:00,
2013-03-20 01:15:00,64.5,63.0,29.95,SSW,210,0.0,0.0,95,0.00,,,0.00,weatherlink.com 1.10,2013-03-20 05:15:00,
2013-03-20 01:30:00,65.1,64.0,29.95,NW,323,0.0,1.0,95,0.00,,,0.00,weatherlink.com 1.10,2013-03-20 05:30:00,
2013-03-20 01:45:00,65.3,64.0,29.95,West,264,0.0,0.0,95,0.00,,,0.00,weatherlink.com 1.10,2013-03-20 05:45:00,
2013-03-20 02:00:00,65.1,63.0,29.95,West,264,0.0,0.0,94,0.00,,,0.00,weatherlink.com 1.10,2013-03-20 06:00:00,
2013-03-20 02:15:00,65.1,63.0,29.95,ENE,64,0.0,1.0,94,0.00,,,0.00,weatherlink.com 1.10,2013-03-20 06:15:00,
2013-03-20 02:30:00,64.7,63.0,29.94,ENE,63,0.0,0.0,94,0.00,,,0.00,weatherlink.com 1.10,2013-03-20 06:30:00,
2013-03-20 02:45:00,64.2,63.0,29.94,ENE,64,0.0,0.0,94,0.00,,,0.00,weatherlink.com 1.10,2013-03-20 06:45:00,
2013-03-20 03:00:00,63.7,62.0,29.93,ENE,63,0.0,0.0,95,0.00,,,0.00,weatherlink.com 1.10,2013-03-20 07:00:00,
2013-03-20 03:15:00,63.0,62.0,29.93,ENE,63,0.0,0.0,95,0.00,,,0.00,weatherlink.com 1.10,2013-03-20 07:15:00,
2013-03-20 03:30:00,62.5,61.0,29.92,ENE,63,0.0,0.0,95,0.00,,,0.00,weatherlink.com 1.10,2013-03-20 07:30:00,
2013-03-20 03:45:00,62.3,61.0,29.92,ENE,63,0.0,0.0,95,0.00,,,0.00,weatherlink.com 1.10,2013-03-20 07:45:00,
2013-03-20 04:00:00,61.7,60.0,29.91,ENE,63,0.0,0.0,95,0.00,,,0.00,weatherlink.com 1.10,2013-03-20 08:00:00,
2013-03-20 04:15:00,61.6,60.0,29.91,ENE,64,0.0,0.0,95,0.00,,,0.00,weatherlink.com 1.10,2013-03-20 08:15:00,
2013-03-20 04:30:00,61.3,60.0,29.91,ENE,63,0.0,0.0,95,0.00,,,0.00,weatherlink.com 1.10,2013-03-20 08:30:00,
2013-03-20 04:46:00,61.0,60.0,29.91,ENE,63,0.0,0.0,95,0.00,,,0.00,weatherlink.com 1.10,2013-03-20 08:46:00,
2013-03-20 05:00:00,61.0,60.0,29.91,ENE,63,0.0,0.0,95,0.00,,,0.00,weatherlink.com 1.10,2013-03-20 09:00:00,
2013-03-20 05:15:00,60.8,59.0,29.91,ENE,63,0.0,0.0,95,0.00,,,0.00,weatherlink.com 1.10,2013-03-20 09:15:00,
2013-03-20 05:30:00,60.7,59.0,29.91,ENE,63,0.0,0.0,95,0.00,,,0.00,weatherlink.com 1.10,2013-03-20 09:30:00,
2013-03-20 05:45:00,60.5,59.0,29.92,ENE,63,0.0,0.0,95,0.00,,,0.00,weatherlink.com 1.10,2013-03-20 09:45:00,
2013-03-20 06:00:00,60.6,59.0,29.91,ENE,64,0.0,0.0,95,0.00,,,0.00,weatherlink.com 1.10,2013-03-20 10:00:00,
2013-03-20 06:15:00,60.2,59.0,29.92,ENE,63,0.0,0.0,95,0.00,,,0.00,weatherlink.com 1.10,2013-03-20 10:15:00,
2013-03-20 06:30:00,60.1,59.0,29.93,ENE,64,0.0,0.0,95,0.00,,,0.00,weatherlink.com 1.10,2013-03-20 10:30:00,
2013-03-20 06:45:00,59.8,58.0,29.93,ENE,63,0.0,0.0,95,0.00,,,0.00,weatherlink.com 1.10,2013-03-20 10:45:00,
2013-03-20 07:00:00,59.7,58.0,29.93,ENE,63,0.0,0.0,95,0.00,,,0.00,weatherlink.com 1.10,2013-03-20 11:00:00,
2013-03-20 07:15:00,59.6,58.0,29.94,ENE,63,0.0,0.0,95,0.00,,,0.00,weatherlink.com 1.10,2013-03-20 11:15:00,
2013-03-20 07:30:00,59.6,58.0,29.94,ENE,63,0.0,0.0,95,0.00,,,0.00,weatherlink.com 1.10,2013-03-20 11:30:00,
2013-03-20 07:45:00,59.6,58.0,29.94,ENE,63,0.0,0.0,95,0.00,,,0.00,weatherlink.com 1.10,2013-03-20 11:45:00,
2013-03-20 08:00:00,59.8,58.0,29.94,ENE,63,0.0,0.0,95,0.00,,,0.00,weatherlink.com 1.10,2013-03-20 12:00:00,
2013-03-20 08:15:00,60.4,59.0,29.94,ENE,64,0.0,0.0,95,0.00,,,0.00,weatherlink.com 1.10,2013-03-20 12:15:00,
2013-03-20 08:30:00,61.4,60.0,29.94,ENE,63,0.0,0.0,95,0.00,,,0.00,weatherlink.com 1.10,2013-03-20 12:30:00,
2013-03-20 08:45:00,63.7,62.0,29.95,ENE,64,0.0,0.0,95,0.00,,,0.00,weatherlink.com 1.10,2013-03-20 12:45:00,
2013-03-20 09:00:00,65.7,64.0,29.95,ENE,64,0.0,0.0,94,0.00,,,0.00,weatherlink.com 1.10,2013-03-20 13:00:00,
2013-03-20 09:15:00,67.1,65.0,29.96,NNW,339,0.0,1.0,94,0.00,,,0.00,weatherlink.com 1.10,2013-03-20 13:15:00,
2013-03-20 09:30:00,68.3,67.0,29.98,West,270,0.0,0.0,94,0.00,,,0.00,weatherlink.com 1.10,2013-03-20 13:30:00,
2013-03-20 09:46:00,69.6,68.0,29.97,North,349,0.0,2.0,94,0.00,,,0.00,weatherlink.com 1.10,2013-03-20 13:46:00,
2013-03-20 10:01:00,71.9,69.0,29.98,NNW,331,0.0,1.0,90,0.00,,,0.00,weatherlink.com 1.10,2013-03-20 14:01:00,
2013-03-20 10:16:00,73.6,69.0,29.98,NNE,33,1.0,1.0,85,0.00,,,0.00,weatherlink.com 1.10,2013-03-20 14:16:00,
2013-03-20 10:31:00,75.4,70.0,29.96,West,280,0.0,1.0,82,0.00,,,0.00,weatherlink.com 1.10,2013-03-20 14:31:00,
2013-03-20 11:16:00,77.8,68.0,29.95,SSE,165,0.0,0.0,71,0.00,,,0.00,weatherlink.com 1.10,2013-03-20 15:16:00,
2013-03-20 11:31:00,78.5,68.0,29.95,WSW,244,0.0,0.0,69,0.00,,,0.00,weatherlink.com 1.10,2013-03-20 15:31:00,
2013-03-20 11:46:00,79.8,67.0,29.95,SSW,205,0.0,1.0,66,0.00,,,0.00,weatherlink.com 1.10,2013-03-20 15:46:00,
2013-03-20 12:01:00,80.7,67.0,29.95,SW,236,0.0,3.0,63,0.00,,,0.00,weatherlink.com 1.10,2013-03-20 16:01:00,
2013-03-20 12:16:00,80.8,66.0,29.95,SSE,148,1.0,3.0,61,0.00,,,0.00,weatherlink.com 1.10,2013-03-20 16:16:00,
2013-03-20 12:31:00,81.9,67.0,29.94,ESE,121,0.0,4.0,61,0.00,,,0.00,weatherlink.com 1.10,2013-03-20 16:31:00,
2013-03-20 12:46:00,82.7,68.0,29.93,ESE,111,0.0,2.0,62,0.00,,,0.00,weatherlink.com 1.10,2013-03-20 16:46:00,
2013-03-20 13:01:00,81.8,67.0,29.91,WSW,242,0.0,3.0,62,0.00,,,0.00,weatherlink.com 1.10,2013-03-20 17:01:00,
2013-03-20 13:31:00,82.4,66.0,29.89,West,278,0.0,3.0,58,0.00,,,0.00,weatherlink.com 1.10,2013-03-20 17:31:00,
2013-03-20 13:46:00,83.1,67.0,29.88,NE,46,1.0,2.0,59,0.00,,,0.00,weatherlink.com 1.10,2013-03-20 17:46:00,
2013-03-20 14:01:00,84.0,64.0,29.87,West,264,1.0,3.0,52,0.00,,,0.00,weatherlink.com 1.10,2013-03-20 18:01:00,
2013-03-20 14:16:00,85.5,67.0,29.86,West,262,0.0,2.0,54,0.00,,,0.00,weatherlink.com 1.10,2013-03-20 18:16:00,
2013-03-20 14:47:00,86.4,67.0,29.85,ESE,109,1.0,2.0,53,0.00,,,0.00,weatherlink.com 1.10,2013-03-20 18:47:00,
2013-03-20 15:02:00,85.9,67.0,29.84,South,174,0.0,4.0,53,0.00,,,0.00,weatherlink.com 1.10,2013-03-20 19:02:00,
2013-03-20 15:17:00,86.3,67.0,29.83,West,274,1.0,2.0,53,0.00,,,0.00,weatherlink.com 1.10,2013-03-20 19:17:00,
2013-03-20 15:32:00,86.3,66.0,29.83,West,280,0.0,2.0,50,0.00,,,0.00,weatherlink.com 1.10,2013-03-20 19:32:00,
2013-03-20 15:47:00,85.6,64.0,29.83,WSW,239,1.0,3.0,48,0.00,,,0.00,weatherlink.com 1.10,2013-03-20 19:47:00,
2013-03-20 16:02:00,85.3,64.0,29.82,West,274,1.0,5.0,49,0.00,,,0.00,weatherlink.com 1.10,2013-03-20 20:02:00,
2013-03-20 16:17:00,85.3,66.0,29.82,WSW,252,2.0,3.0,52,0.00,,,0.00,weatherlink.com 1.10,2013-03-20 20:17:00,
2013-03-20 16:33:00,85.7,65.0,29.81,North,6,2.0,4.0,51,0.00,,,0.00,weatherlink.com 1.10,2013-03-20 20:33:00,
2013-03-20 16:47:00,83.9,65.0,29.81,WNW,285,0.0,2.0,53,0.00,,,0.00,weatherlink.com 1.10,2013-03-20 20:47:00,
2013-03-20 17:02:00,83.1,65.0,29.80,NNW,345,0.0,3.0,55,0.00,,,0.00,weatherlink.com 1.10,2013-03-20 21:02:00,
2013-03-20 17:10:00,82.8,64.0,29.80,NW,324,1.0,2.0,54,0.00,,,0.00,weatherlink.com 1.10,2013-03-20 21:10:00,
2013-03-20 17:25:00,81.9,64.0,29.80,West,266,0.0,8.0,55,0.00,,,0.00,weatherlink.com 1.10,2013-03-20 21:25:00,
2013-03-20 17:40:00,81.2,61.0,29.80,WNW,287,3.0,7.0,51,0.00,,,0.00,weatherlink.com 1.10,2013-03-20 21:40:00,
2013-03-20 17:55:00,80.6,62.0,29.80,WSW,246,2.0,5.0,53,0.00,,,0.00,weatherlink.com 1.10,2013-03-20 21:55:00,
2013-03-20 18:10:00,79.9,62.0,29.80,West,267,1.0,5.0,54,0.00,,,0.00,weatherlink.com 1.10,2013-03-20 22:10:00,
2013-03-20 18:25:00,79.3,61.0,29.81,WNW,294,0.0,5.0,54,0.00,,,0.00,weatherlink.com 1.10,2013-03-20 22:25:00,
2013-03-20 18:40:00,78.6,61.0,29.83,West,270,0.0,5.0,55,0.00,,,0.00,weatherlink.com 1.10,2013-03-20 22:40:00,
2013-03-20 18:55:00,77.9,59.0,29.84,WSW,254,2.0,3.0,53,0.00,,,0.00,weatherlink.com 1.10,2013-03-20 22:55:00,
2013-03-20 19:10:00,77.2,59.0,29.84,West,263,1.0,3.0,54,0.00,,,0.00,weatherlink.com 1.10,2013-03-20 23:10:00,
2013-03-20 19:25:00,76.3,59.0,29.84,West,273,0.0,2.0,55,0.00,,,0.00,weatherlink.com 1.10,2013-03-20 23:25:00,
2013-03-20 19:40:00,75.6,59.0,29.85,West,262,0.0,1.0,57,0.00,,,0.00,weatherlink.com 1.10,2013-03-20 23:40:00,
2013-03-20 19:55:00,75.0,59.0,29.86,West,259,0.0,4.0,58,0.00,,,0.00,weatherlink.com 1.10,2013-03-20 23:55:00,
2013-03-20 20:10:00,74.4,59.0,29.87,WSW,256,2.0,3.0,59,0.00,,,0.00,weatherlink.com 1.10,2013-03-21 00:10:00,
2013-03-20 20:25:00,73.7,59.0,29.88,West,266,0.0,3.0,61,0.00,,,0.00,weatherlink.com 1.10,2013-03-21 00:25:00,
2013-03-20 20:40:00,73.1,60.0,29.89,NNW,335,2.0,4.0,63,0.00,,,0.00,weatherlink.com 1.10,2013-03-21 00:40:00,
2013-03-20 20:55:00,72.6,59.0,29.91,West,270,1.0,4.0,63,0.00,,,0.00,weatherlink.com 1.10,2013-03-21 00:55:00,
2013-03-20 21:10:00,72.2,59.0,29.90,WNW,288,0.0,3.0,64,0.00,,,0.00,weatherlink.com 1.10,2013-03-21 01:10:00,
2013-03-20 21:25:00,72.1,59.0,29.92,NW,307,1.0,7.0,63,0.00,,,0.00,weatherlink.com 1.10,2013-03-21 01:25:00,
2013-03-20 21:40:00,71.7,60.0,29.95,WSW,240,2.0,9.0,66,0.00,,,0.00,weatherlink.com 1.10,2013-03-21 01:40:00,
2013-03-20 21:55:00,70.0,61.0,29.95,ENE,63,1.0,6.0,72,0.00,,,0.00,weatherlink.com 1.10,2013-03-21 01:55:00,
2013-03-20 22:10:00,68.3,61.0,29.95,WSW,253,2.0,5.0,77,0.00,,,0.00,weatherlink.com 1.10,2013-03-21 02:10:00,
2013-03-20 22:25:00,67.9,60.0,29.93,West,263,2.0,7.0,77,0.00,,,0.00,weatherlink.com 1.10,2013-03-21 02:25:00,
2013-03-20 22:40:00,67.5,60.0,29.89,WNW,297,0.0,4.0,78,0.00,,,0.00,weatherlink.com 1.10,2013-03-21 02:40:00,
2013-03-20 22:55:00,67.3,61.0,29.88,NNW,347,0.0,4.0,79,0.00,,,0.00,weatherlink.com 1.10,2013-03-21 02:55:00,
2013-03-20 23:10:00,67.0,61.0,29.86,NNW,346,0.0,0.0,80,0.00,,,0.00,weatherlink.com 1.10,2013-03-21 03:10:00,
2013-03-20 23:25:00,66.6,61.0,29.87,West,273,0.0,0.0,82,0.00,,,0.00,weatherlink.com 1.10,2013-03-21 03:25:00,
2013-03-20 23:40:00,66.4,61.0,29.87,SW,233,0.0,2.0,83,0.00,,,0.00,weatherlink.com 1.10,2013-03-21 03:40:00,
2013-03-20 23:55:00,66.2,61.0,29.86,West,264,0.0,0.0,84,0.00,,,0.00,weatherlink.com 1.10,2013-03-21 03:55:00,